Location: Iesi
(43.5167°N, 13.2333°E)
Time: 16:56:57
(UTC+00:00)

CENTAUR R/B - Pass Details

Date: 08 August 2020
Orbit: 756 x 1432 km, 63.4° (Epoch: 19 September)

Event Time Altitude Azimuth Distance (km) Brightness Sun altitude
Exits shadow 22:51:55 11° 263° (W) 2,569 4.7 -30.5°
Maximum altitude 22:57:14 33° 325° (NW) 1,667 4.1 -30.6°
Drops below altitude 10° 23:03:39 10° 27° (NNE) 3,070 5.8 -30.7°
Sets 23:06:58 0° 37° (NE) 4,149 6.5 -30.7°
